Regional Weather Roundup
Issued by NWS Glasgow, MT

Home | Current Version | Previous Version | Text Only | Print | Product List | Glossary On
Versions: 1 2 3 4 5 6 7 8 9 10 11 12 13 14 15 16 17 18 19 20 21 22 23 24 25 26 27 28 29 30 31 32 33 34 35 36 37 38 39 40 41 42 43 44 45 46 47 48 49 50
000
ASUS45 KGGW 290315
RWRGGW
HOURLY REGIONAL WEATHER ROUNDUP FOR NORTHEAST MONTANA
NATIONAL WEATHER SERVICE GLASGOW MONTANA
900 PM MDT TUE MAR 28 2017

NOTE: "FAIR" INDICATES FEW OR NO CLOUDS BELOW 12,000 FEET WITH NO
SIGNIFICANT WEATHER AND/OR OBSTRUCTIONS TO VISISBILITY.

NORTHEAST MONTANA


CITY           SKY/WX    TMP DP  RH WIND       PRES   REMARKS
GLASGOW        CLOUDY    44  29  55 S8        30.04R
PLENTYWOOD       N/A     39  36  89 E7          N/A
WOLF POINT     CLEAR     47  38  71 S6        30.07R
JORDAN           N/A     43  33  68 CALM      30.06R
WINNETT          N/A     45  23  42 NW5         N/A
SIDNEY         CLOUDY    38  38 100 CALM      30.12R FOG
GLENDIVE       MOCLDY    39  38  96 NW6       30.12R
MALTA            N/A     43  29  57 SW6G17      N/A
SCOBEY           N/A     42  31  65 CALM      30.04R

FORT PECK REPORTS


CITY           SKY/WX    TMP DP  RH WIND       PRES   REMARKS
FORT PECK        N/A     46  32  58 SE10        N/A
THE PINES        N/A     46  28  49 CALM        N/A

SOUTHEAST MONTANA


CITY           SKY/WX    TMP DP  RH WIND       PRES   REMARKS
BILLINGS       PTCLDY    47  35  63 S7        30.08R
MILES CITY     CLEAR     47  33  58 S5        30.10R
BAKER          CLOUDY    46  38  73 E6        30.12R
LIVINGSTON     CLEAR     39  24  55 S9        30.09R

CENTRAL MONTANA


CITY           SKY/WX    TMP DP  RH WIND       PRES   REMARKS
HAVRE          CLOUDY    42  27  55 SW8       30.01R
LEWISTOWN      CLOUDY    38  21  50 CALM      30.07R
GREAT FALLS    CLOUDY    42  22  44 SW10      30.06R
CUT BANK       CLOUDY    41  25  53 SW22      30.01S
HELENA         PTCLDY    46  24  42 CALM      30.12R
BUTTE          CLOUDY    39  20  46 W6        30.15R
BOZEMAN        CLOUDY    44  25  47 S6        30.11R

WESTERN MONTANA


CITY           SKY/WX    TMP DP  RH WIND       PRES   REMARKS
MISSOULA       CLOUDY    44  30  57 N5        30.20S
KALISPELL      NOT AVBL

NORTH DAKOTA


CITY           SKY/WX    TMP DP  RH WIND       PRES   REMARKS
WILLISTON      CLOUDY    37  36  96 W3        30.10R FOG
DICKINSON      CLOUDY    41  39  93 CALM      30.10S
MINOT          CLOUDY    48  40  73 E9        30.11R
BISMARCK       CLOUDY    47  38  71 SE8       30.15R

SOUTHERN SASKATCHEWAN


CITY           SKY/WX    TMP DP  RH WIND       PRES   REMARKS
REGINA         CLOUDY    36  36 100 SE18G25   30.05S FOG
ESTEVAN        FOG       36  36 100 E7        30.11S VSB 1/4
SWIFT CURRENT  MOCLDY    41  27  56 S12       29.95R




USA.gov is the U.S. government's official web portal to all federal, state and local government web resources and services.